Weather Roundup
Issued by NWS

Home | Current Version | Previous Version | Graphics & Text | Print | Product List | Glossary Off
Versions: 1 2 3 4 5 6 7 8 9 10 11 12 13 14 15 16 17 18 19 20 21 22 23 24 25 26 27 28 29 30 31 32 33 34 35 36 37 38 39 40 41 42 43 44 45 46 47 48 49 50

678
NZUS93 KARX 282059
HRRWXR

CURRENT HOURLY OBSERVATIONS ACROSS
MUCH OF THE UPPER MISSISSIPPI VALLEY
NATIONAL WEATHER SERVICE LA CROSSE WI
400 PM CDT THU JUL 28 2016


...SOUTHEAST MINNESOTA...


CITY           SKY/WX    TMP DP  RH WIND       PRES   REMARKS
ROCHESTER      CLOUDY    69  65  86 NE15      30.00S
ROCHESTER/MAYO CLOUDY    68  65  90 NE9G18    30.00S
WINONA         CLOUDY    70  61  73 NE7       29.98R
AUSTIN         LGT RAIN  70  64  83 N12G18    29.98F
ALBERT LEA     CLOUDY    70  66  88 N7        30.00S
DODGE CENTER   CLOUDY   N/A N/A N/A NE13      30.00S
PRESTON        CLOUDY    66  61  85 NE13      29.99S
OWATONNA       PTSUNNY   70  64  83 N9        30.01S
FARIBAULT      CLOUDY    70  64  83 N8        30.01F
$$

...ELSEWHERE IN MINNESOTA...


CITY           SKY/WX    TMP DP  RH WIND       PRES   REMARKS
MINNEAPOLIS    CLOUDY    74  59  59 NE9G20    30.02S
INTNL FALLS    SUNNY     76  53  44 MISG      30.09S
DULUTH         CLOUDY    70  51  51 E18       30.09F
RED WING       CLOUDY    73  63  68 NE8       29.99F
REDWOOD FALLS  CLOUDY    78  57  48 MISG      30.03F
MANKATO        PTSUNNY   72  61  68 N13       30.02S
WORTHINGTON    MOSUNNY   74  62  66 N10       30.05S
FAIRMONT       CLOUDY    73  63  68 N6        30.01S
$$

...SOUTHWEST WISCONSIN...


CITY           SKY/WX    TMP DP  RH WIND       PRES   REMARKS
LA CROSSE      CLOUDY    67  63  87 N8        29.96R
PRAIRIE DU CHI CLOUDY    75  66  72 NW16G23   29.90S
BOSCOBEL       CLOUDY    76  69  79 VRB5      29.90S
LONE ROCK      NOT AVBL
PLATTEVILLE    CLOUDY    80  71  75 NW8       29.91R
FORT MC COY    CLOUDY    66  64  93 NE8       29.96F
MAUSTON-NEW LI CLOUDY    71  65  81 NE5       29.94S
VIROQUA        CLOUDY    68  68 100 NE8       29.95R
WIS DELLS      NOT AVBL
$$

...ELSEWHERE IN WISCONSIN...


CITY           SKY/WX    TMP DP  RH WIND       PRES   REMARKS
MILWAUKEE      CLOUDY    69  63  81 N13G22    29.93R
MADISON        CLOUDY    76  67  73 E16       29.91R
GREEN BAY      CLOUDY    68  67  96 NE12      29.99S
EAU CLAIRE     NOT AVBL
BLACK RVR FLS  DRIZZLE   65  65 100 NE8       29.98S
MEDFORD        CLOUDY    65  62  91 E6        30.02F
WAUSAU         CLOUDY    64  58  80 CALM      30.00F
WIS RAPIDS     CLOUDY    69  61  75 E10G18    29.99S
MARSHFIELD     LGT RAIN  63  59  87 NE12      29.99S FOG
RICE LAKE      PTSUNNY   73  59  60 N9        30.03F
$$

...NORTHEAST IOWA...


CITY           SKY/WX    TMP DP  RH WIND       PRES   REMARKS
WATERLOO       CLOUDY    75  66  73 NW13      29.93S
DUBUQUE        PTSUNNY   80  69  69 NW12      29.91R
DECORAH        CLOUDY    70  66  88 N9        29.95R
MASON CITY     CLOUDY    75  65  70 NW10      29.99F
CHARLES CITY   CLOUDY    75  68  78 N13       29.96F
OELWEIN        CLOUDY    75  68  78 NW13      29.93S
$$

...ELSEWHERE IN IOWA...


CITY           SKY/WX    TMP DP  RH WIND       PRES   REMARKS
DES MOINES     MOSUNNY   80  62  54 N14G22    29.97S
IOWA CITY      PTSUNNY   82  66  58 NW15      29.92R
FORT DODGE     PTSUNNY   75  64  69 N9G18     30.01F
MARSHALLTOWN   PTSUNNY   76  66  71 NW8       29.95S
CEDAR RAPIDS   MOSUNNY   80  68  66 NW14      29.91R
$$

...NORTHERN ILLINOIS...


CITY           SKY/WX    TMP DP  RH WIND       PRES   REMARKS
CHICAGO-OHARE  LGT RAIN  75  71  87 N10       29.91R
CHICAGO-MIDWAY LGT RAIN  75  69  81 CALM      29.91R
MOLINE         SUNNY     83  66  56 W12       29.88R
ROCKFORD       PTSUNNY   77  66  68 E8        29.91R
PEORIA         MOSUNNY   87  70  56 NW7       29.87R HX  92
$$

NOTE: "FAIR" INDICATES FEW OR NO CLOUDS BELOW 12,000 FEET WITH NO
SIGNIFICANT WEATHER AND/OR OBSTRUCTIONS TO VISIBILITY. WIND
SPEEDS ARE IN MILES-PER-HOUR.




USA.gov is the U.S. government's official web portal to all federal, state and local government web resources and services.